Flag for U.S.A. Weather past 2 weeks in Chinle, Arizona, U.S.A.

Now
61 °F

Passing clouds.


Feels Like: 61 °F
Forecast: 62 / 86 °F
Wind: No wind

Location: Window Rock Airport

Current Time: Jul 5, 2015 at 11:46:45 PM

Latest Report: Jul 5, 2015 at 10:53 PM


Visibility: 10 mi

Pressure: 29.94 "Hg (24.55 "Hg at 1678m altitude)

Humidity: 87%

Dew point: 57 °F

Location of ChinleLocation

Historic Weather in Chinle — Graph

°F

Chinle temperature yesterday

Maximum temperature yesterday: 83 °F (at 12:53 PM)
Minimum temperature yesterday: 58 °F (at 4:53 AM)
Average temperature yesterday: 68 °F

Past Weeks' High & Low Weather Summary

 TemperatureHumidityPressure
High94 °F (Jun 21, 3:53 PM)90% (Jul 5, 6:53 AM)30.05 "Hg (Jul 5, 6:53 AM)
Low48 °F (Jun 21, 5:53 AM)7% (Jun 21, 1:53 PM)29.70 "Hg (Jul 2, 5:53 PM)
Average72 °F43%29.87 "Hg
* Reported Jun 20 11:53 PM — Jul 5 9:53 PM, Chinle, Weather by CustomWeather, © 2015

Note: Actual official high and low records may vary slightly from our data, if they occured in-between our weather recording intervals... More about our weather records

Advertising

Chinle weather history for previous 24 hours

 ConditionsComfort  
Time TempWeatherWind HumidityBarometerVisibility
9:53 PM
Sun, Jul 5
61 °FLight rain. Overcast.7 mph83%29.94 "Hg10 mi
8:53 PM63 °FRain. Mostly cloudy.13 mph73%29.94 "Hg4 mi
7:53 PM64 °FLight rain. Overcast.15 mph75%29.90 "Hg5 mi
6:53 PM79 °FScattered clouds.5 mph36%29.79 "Hg10 mi
5:53 PM82 °FMostly cloudy.8 mph31%29.76 "Hg10 mi
4:53 PM81 °FPassing clouds.12 mph32%29.78 "Hg10 mi
3:53 PM81 °FPassing clouds.13 mph33%29.80 "Hg10 mi
2:53 PM82 °FSunny.10 mph32%29.81 "Hg10 mi
12:53 PM76 °FSunny.10 mph43%29.89 "Hg10 mi
10:53 AM72 °FPartly sunny.8 mph59%29.91 "Hg10 mi
9:53 AM67 °FOvercast.5 mph71%29.94 "Hg10 mi
8:53 AM66 °FPartly sunny.No wind73%29.95 "Hg10 mi
7:53 AM63 °FMore clouds than sun.No wind84%29.95 "Hg10 mi
6:53 AM61 °FOvercast.No wind90%29.91 "Hg7 mi
5:53 AM62 °FLight rain. Mostly cloudy.No wind86%29.89 "Hg10 mi
2:53 AM62 °FMostly cloudy.No wind83%29.86 "Hg10 mi
1:53 AM62 °FPartly cloudy.No wind83%29.85 "Hg10 mi
12:53 AM62 °FPassing clouds.3 mph83%29.85 "Hg10 mi
11:53 PM
Sat, Jul 4
63 °FOvercast.No wind81%29.87 "Hg10 mi
Weather by CustomWeather, © 2015

See weather overviewHow to use our weather pages